Simultaneous Nadir Overpasses (SNOs) Predictions

Prediction of SNOs between GOES-14 and NPP Satellite Orbit:

Table of predicted SNOs for the next 14.0 days since TLE Epoch: 6/3/2023
Index Date Time (GOES-14) GOES-14 Lat,Lon NPP Lat,Lon Distance(km) Time Diff (sec)
1 06/04/2023 08:45:17 0.04,-108.68 0.27,-109.67 113.69 36
2 06/05/2023 08:25:47 0.06,-108.68 -0.74,-105.14 403.62 80
3 06/06/2023 20:47:43 -0.02,-108.62 -0.41,-110.45 207.67 80
4 06/07/2023 20:31:36 -0.04,-108.63 0.55,-105.90 310.42 80
5 06/09/2023 08:50:44 0.01,-108.72 0.57,-111.18 281.52 80
6 06/10/2023 08:34:38 0.03,-108.72 -0.45,-106.65 236.07 80
7 06/11/2023 20:53:52 0.00,-108.65 -0.75,-111.95 376.23 80
8 06/12/2023 20:37:47 -0.01,-108.67 0.27,-107.42 142.17 80
9 06/14/2023 08:56:54 -0.02,-108.77 0.84,-112.70 448.07 80
10 06/15/2023 08:40:48 -0.01,-108.77 -0.13,-108.16 69.54 80
